Simultaneous Nadir Overpasses (SNOs) Predictions

Prediction of SNOs between NOAA-19 and NPP Satellite Orbit:

Table of predicted SNOs for the next 14.0 days since TLE Epoch: 4/24/2015
Index Date (NOAA-19) Time (NOAA-19) Lat,Lon (NOAA-19) SZA (NOAA-19 ) Date (NPP) Time (NPP) Lat,Lon (NPP) SZA (NPP ) Distance(km) Time Diff (sec)
1 05/05/2015 16:49:13 -81.02, 55.79 111.83 05/05/2015 16:50:21 -81.02, 55.74 111.86 0.91 68
2 05/05/2015 17:40:12 81.01,-136.88 68.15 05/05/2015 17:41:06 81.02,-136.96 68.14 1.43 54
3 05/05/2015 18:31:15 -81.01, 30.55 111.89 05/05/2015 18:31:50 -81.00, 30.64 111.92 1.66 35
4 05/05/2015 19:22:14 81.01,-162.12 68.09 05/05/2015 19:22:35 81.01,-162.06 68.07 1.06 21
5 05/05/2015 20:13:17 -81.01, 5.31 111.95 05/05/2015 20:13:20 -81.01, 5.17 111.93 2.41 3
6 05/05/2015 21:04:15 81.00, 172.65 68.04 05/05/2015 21:04:04 81.01, 172.47 68.07 3.12 11
7 05/05/2015 21:55:18 -81.00, -19.93 112.00 05/05/2015 21:54:48 -81.00, -19.93 111.99 0.51 30
8 05/05/2015 22:46:17 81.00, 147.41 67.98 05/05/2015 22:45:33 81.00, 147.37 68.01 0.78 44




NCC Satellite Simultaneous Nadir Overpasses (SNOs) Prediction Service
